#timestamp,LO_Frequency,Hit,StdDev 
1506470415.5,286047002.1,N
1506470435.3,286047001.5,N
1506470455.1,286047003.7,N
1506470475.8,286047001.3,N
1506470495.7,286047004.0,N
1506470515.5,286047001.7,N
1506470535.3,286047001.6,N
1506470555.2,286047001.7,N
1506470575.9,286047001.6,N
1506470595.7,286047000.9,N
1506470615.6,286047002.5,N
1506470635.4,286047001.6,N
1506470655.2,286047004.4,Y
1506470675.1,286047000.2,P
1506470676.0,286047000.2,N
1506470695.8,286047000.0,N
1506470715.6,286047000.9,N
1506470735.5,286047002.6,Y
1506470755.3,286046998.9,P
1506470775.1,286046999.4,N
1506470795.9,286046997.1,P
1506470815.7,286046997.2,N
1506470835.5,286046996.7,N
1506470855.4,286046999.6,N
1506470875.2,286046999.6,N
1506470895.0,286046998.7,N
1506470895.9,286046998.7,N
1506470915.7,286046999.5,N
1506470935.6,286047000.7,N
1506470955.4,286047001.0,N
1506470975.2,286046999.8,N
1506470995.1,286047000.0,N
1506470996.0,286047000.0,N
1506471015.8,286047002.0,N
1506471035.6,286047001.9,N
1506471055.5,286047002.6,N
1506471075.3,286047000.6,N
1506471095.1,286047001.6,N
1506471115.9,286047002.5,N
1506471135.7,286047003.9,N
1506471155.5,286047001.9,N
1506471175.3,286047002.9,N
1506471195.2,286047003.2,N
1506471215.0,286047004.0,N
1506471215.9,286047004.0,N
1506471235.7,286047004.0,N
1506471255.6,286047004.3,N
1506471275.4,286047005.9,N
1506471295.2,286047005.1,N
1506471315.1,286047005.8,N
1506471316.0,286047005.8,N
1506471335.8,286047004.8,N
1506471355.6,286047005.8,N
1506471375.5,286047004.7,N
1506471395.3,286047005.8,N
1506471415.1,286047007.2,Y
1506471435.9,286047003.7,P
1506471455.7,286047003.4,P
1506471475.5,286047004.4,P
1506471495.4,286047002.6,Y
1506471515.2,286046999.1,P
1506471535.0,286047001.2,N
1506471535.9,286047001.2,N
1506471555.8,286046999.3,N
1506471575.6,286046999.1,N
1506471595.4,286046997.2,N
1506471615.3,286046997.5,N
1506471635.1,286046997.7,N
1506471636.0,286046997.7,N
1506471655.8,286046997.6,N
1506471675.7,286046995.2,N
1506471695.5,286046996.8,N
1506471715.3,286046998.9,N
1506471735.1,286046998.6,N
1506471755.9,286047000.4,N
1506471775.7,286047000.4,N
1506471795.5,286047004.0,N
1506471815.4,286047004.3,N
1506471835.2,286047003.2,N
1506471855.0,286047003.2,N
1506471855.9,286047003.2,N
1506471875.8,286047006.0,N
1506471895.6,286047002.9,N
1506471915.4,286047005.5,N
1506471935.3,286047007.6,N
1506471955.1,286047005.6,N
1506471956.0,286047005.6,N
1506471975.8,286047006.0,N
1506471995.6,286047003.6,N
1506472015.5,286047004.1,N
1506472035.3,286047004.3,N
1506472055.1,286047003.9,N
1506472075.9,286047004.3,N
1506472095.7,286047001.3,N
1506472115.5,286047003.9,N
1506472135.4,286047001.5,N
1506472155.2,286047001.7,N
1506472175.0,286047004.4,N
1506472175.9,286047004.4,N
1506472195.8,286047004.0,N
1506472215.6,286047005.4,N
1506472235.4,286047005.4,N
1506472255.3,286047003.9,N
1506472275.1,286047004.0,N
1506472276.0,286047004.0,N
1506472295.8,286047003.6,N
1506472315.7,286047003.5,N
1506472335.5,286047004.6,Y
1506472355.3,286047002.0,P
1506472375.2,286047004.4,P
1506472395.9,286047004.0,P
1506472415.7,286047001.9,N
1506472435.6,286047000.3,N
1506472455.4,286047002.1,N
1506472475.2,286047004.4,Y
1506472495.1,286046999.7,P
1506472496.0,286046999.7,N
1506472515.8,286047000.0,N
1506472535.6,286047000.0,N
1506472555.4,286047002.8,N
1506472575.3,286047002.8,N
1506472595.1,286047002.8,N
1506472615.8,286047004.2,N
1506472635.7,286047004.0,N
1506472655.5,286047004.4,N
1506472675.3,286047001.8,N
1506472695.2,286046999.7,N
1506472715.9,286047000.2,N
1506472735.7,286047002.8,N
1506472755.6,286047003.9,N
1506472775.4,286047001.7,N
1506472795.2,286047004.4,N
1506472815.1,286047004.3,N
1506472816.0,286047004.3,N
1506472835.8,286047006.0,Y
1506472855.6,286047001.3,P
1506472875.5,286047003.6,P
1506472895.3,286047005.3,P
1506472915.1,286047003.2,N
1506472935.9,286047003.2,N
1506472955.7,286047001.5,N
1506472975.5,286047002.5,N
1506472995.3,286047002.0,N
1506473015.2,286047001.9,N
1506473035.0,286047002.1,N
1506473035.9,286047002.1,N
1506473055.7,286047001.3,N
1506473075.6,286047001.8,N
1506473095.4,286047001.9,N
1506473115.2,286046999.9,N
1506473135.1,286047001.3,N
1506473136.0,286047001.3,N
1506473155.8,286047000.2,N
1506473175.6,286047002.7,N
1506473195.5,286047001.6,N
1506473215.3,286047002.5,N
1506473235.1,286047002.3,N
1506473255.8,286047001.4,N
1506473275.7,286047006.0,Y
1506473295.5,286047001.5,P
1506473315.3,286047002.0,P
1506473335.2,286047002.1,P
1506473355.0,286047002.8,Y
1506473355.9,286047002.8,P
1506473375.8,286046996.7,P
1506473395.6,286046997.6,N
1506473415.4,286047000.9,N
1506473435.2,286046999.7,N
1506473455.1,286047001.1,N
1506473456.0,286047001.1,N
1506473475.8,286046999.9,N
1506473495.6,286047004.4,N
1506473515.5,286047003.6,N
1506473535.3,286047003.7,N
1506473555.1,286047002.6,N
1506473575.9,286046999.9,N
1506473595.7,286047002.6,N
1506473615.5,286047003.7,N
1506473635.4,286047003.7,N
1506473655.2,286047004.1,N
1506473675.0,286047004.5,N
1506473675.9,286047004.5,N
1506473695.8,286047005.0,N
1506473715.6,286047004.7,N
1506473735.4,286047007.0,Y
1506473755.3,286047007.2,P
1506473775.1,286047007.3,N
1506473776.0,286047007.3,P
1506473795.8,286047007.1,Y
1506473815.7,286046998.5,P
1506473835.5,286046999.0,N
1506473855.3,286046998.6,N
1506473875.1,286046997.2,N
1506473895.9,286046996.5,N
1506473915.7,286046997.4,N
1506473935.5,286046995.0,N
1506473955.4,286046993.3,N
1506473975.2,286046996.0,N
1506473995.0,286046996.3,N
1506473995.9,286046996.3,N
